COSMOS 2251 DEB

基本信息
目录编号:
33821
目录名称:
COSMOS 2251 DEB
国际标识:
1993-036BN
轨道中心:
EARTH
物体状态:
在轨
发射日期:
1993-06-16 UTC
轨道信息
数据来源: 国际轨道数据
星历时间: 2026-09-04T03:36:54+0800
半长轴: 6813.879km
偏心率: 0.0035333
轨道倾角: 74.023°
近地点辐角: 260.582°
升交点赤经: 294.274°
平近点角: 99.140°
近地点: 411.666km
远地点: 459.818km
周期: 93.293分钟
每日圈数: 15.435163
详细信息
发射场:
PKMTR
轨道高度:
LEO
数据来源:
AOE Integration Group
参考系:
TEME
时间系统:
UTC
历元类型:
SGP4
2D轨道图
3D轨道图
轨道高度分析图
轨道倾角分析图
轨道综合分析图
查看轨道综合分析图